Regional Weather Roundup
Issued by NWS

Home | Current Version | Previous Version | Text Only | Print | Product List | Glossary On
Versions: 1 2 3 4 5 6 7 8 9 10 11 12 13 14 15 16 17 18 19 20 21 22 23 24 25 26
000
ASUS45 KBOU 291307
RWRCO

WEATHER ROUNDUP FOR COLORADO
NATIONAL WEATHER SERVICE DENVER/BOULDER CO
700 AM MDT THU JUN 29 2017

NOTE: "FAIR" INDICATES FEW OR NO CLOUDS BELOW 12000 FEET WITH NO
SIGNIFICANT WEATHER AND/OR OBSTRUCTIONS TO VISIBILITY.

COZ001>005-013-030-031-291400-
...NORTHWEST COLORADO...

CITY           SKY/WX    TMP DP  RH WIND       PRES   REMARKS
CRAIG          FAIR      48  38  68 E5        30.10R
HAYDEN         FAIR      48  34  57 E8        30.11R
MEEKER         FAIR      52  35  52 E6        30.11R
RABBIT EARS PA FAIR      41  30  65 NW6       30.31R
STEAMBOAT SPGS FAIR      44  36  72 CALM      30.13R
WALDEN         FAIR      41  34  75 SE7       30.19R
$$

COZ006>008-011-291400-
...WEST CENTRAL VALLEYS...

CITY           SKY/WX    TMP DP  RH WIND       PRES   REMARKS
GRAND JUNCTION FAIR      67  30  25 CALM      29.96R
MONTROSE       FAIR      59  23  25 SE8       30.05R
EAGLE          SUNNY     52  30  43 CALM      30.12R
RIFLE          FAIR      56  34  43 E5        30.04R
DELTA          FAIR      62  23  23 CALM      30.01R
NUCLA          FAIR      59  14  17 E3        30.09R
$$

COZ017>023-064>068-291400-
...SOUTHWEST COLORADO...

CITY           SKY/WX    TMP DP  RH WIND       PRES   REMARKS
DURANGO        FAIR      45  21  38 NE3       30.13R
CORTEZ         FAIR      50  27  40 E6        30.09R
PAGOSA SPRINGS FAIR      52  15  23 NE7       30.21R
TELLURIDE      FAIR      52  15  23 SE6       30.29R
WOLF CREEK PAS FAIR      43  10  26 SW12      30.49R
$$

COZ009-010-012-014-032>034-037-058>063-291400-
...CENTRAL COLORADO...

CITY           SKY/WX    TMP DP  RH WIND       PRES   REMARKS
ASPEN          FAIR      48  32  53 S7        30.15R
BUENA VISTA    FAIR      50  20  30 CALM      30.15R
COPPER MTN     FAIR      50  18  27 CALM      30.40R
BERTHOUD PASS  FAIR      37  27  65 NW21      30.40R
COTTONWOOD PAS FAIR      59  -4   7 W7        30.26R
GUNNISON       FAIR      41  25  53 CALM      30.19R
KREMMLING      FAIR      50  41  71 CALM      30.17R
LEADVILLE      FAIR      42  24  49 CALM      30.25R
MONARCH PASS   FAIR      45   9  23 W21       30.51S
SALIDA         FAIR      54  19  24 CALM      30.19R
SUNLIGHT       FAIR      46  23  39 W6        30.36R
WILKERSON PASS FAIR      48  19  32 SW3       30.38R
$$

COZ069>075-291400-
...SAN LUIS VALLEY/SANGRE DE CRISTO MOUNTAINS...

CITY           SKY/WX    TMP DP  RH WIND       PRES   REMARKS
ALAMOSA        FAIR      42  32  67 SE6       30.14R
DEL NORTE      FAIR      52  15  22 W10       30.17R
LA VETA PASS   FAIR      52  16  24 S17G24    30.41R
SAGUACHE       FAIR      46  14  27 CALM      30.17R
$$

COZ035-036-038>040-291400-
...NORTHERN COLORADO FRONT RANGE...

CITY           SKY/WX    TMP DP  RH WIND       PRES   REMARKS
DENVER INTL AP FAIR      63  46  54 SW6       29.96R
DMNS CITY PARK   N/A     63  47  57 W3        29.98R
AURORA         SUNNY     60  47  62 S5        29.99R
FRONT RANGE AP FAIR      63  46  55 SW5       29.98R
ERIE MUNI ARPT FAIR      56  46  69 CALM      29.96R
BOULDER MUN AP FAIR      63  41  45 CALM      29.97R
CENTENNIAL     FAIR      59  45  59 CALM      30.00R
BROOMFIELD     FAIR      63  39  42 NW10      29.99R
FORT COLLINS   FAIR      61  47  59 N6        29.97
LONGMONT       FAIR      64  43  46 NW3       29.97S
$$

COZ041-046-047-076>085-087-088-291400-
...PIKES PEAK/PALMER DIVIDE AND SOUTHERN FOOTHILLS...

CITY           SKY/WX    TMP DP  RH WIND       PRES   REMARKS
COLO. SPRINGS  FAIR      62  45  53 N5        30.03R
A. F. ACADEMY  FAIR      55  46  70 N5        30.03R
SCHRIEVER AFB  FAIR      63  46  53 NE5       30.04R
CHEYENNE MTN   FAIR      64  48  57 S14       30.01S
ELLICOTT       FAIR     N/A N/A N/A SE7       30.01R
FALCON           N/A     59  45  60 W5        30.07R
FORT CARSON    FAIR      59  43  56 S6        30.01R
LIMON          FAIR      55  52  89 NE3       29.96R
MONUMENT HILL  FAIR      52  43  71 SW6       30.07R
CANON CITY     SUNNY     63  39  42 CALM      30.00R
WALSENBURG     FAIR      59  50  72 CALM      30.03R
TRINIDAD       FAIR      59  37  44 SW6       30.02R
$$

COZ042>045-048>051-090-091-291400-
...NORTHEAST COLORADO...

CITY           SKY/WX    TMP DP  RH WIND       PRES   REMARKS
GREELEY ARPT   FAIR      59  48  67 CALM      29.95R
AKRON          FAIR      60  51  72 SW6       29.93R
BURLINGTON     FAIR      61  58  90 W3        29.89R
WRAY           FAIR      64  54  68 S3        29.85S
YUMA           FAIR      59  54  82 S3        29.89R
STERLING       FAIR      61  52  72 W7        29.90R
HOLYOKE        NOT AVBL
FORT MORGAN    FAIR      62  51  67 CALM      29.94R
$$

COZ086-089-092>099-291400-
...SOUTHEAST COLORADO...

CITY           SKY/WX    TMP DP  RH WIND       PRES   REMARKS
PUEBLO         FAIR      63  50  62 W6        29.96R
LA JUNTA       FAIR      64  53  67 W7        29.93R
LAMAR          FAIR      63  52  67 NW5       29.87R
SPRINGFIELD      N/A     62  53  72 N13       29.89R
$$




USA.gov is the U.S. government's official web portal to all federal, state and local government web resources and services.